Probability
0 0 0 0 0 0 0 0 0 0 0 0 0 0 0 0 0 0 0 0 0 0 0 0 0 0 0 0 0 0 0 0 0 0 0 0 0 0 0 0 0 0 0
0 0 0 0 0 0 0 0 0 0 0 0 0 0 0 0 0 0 0 0 0 0 0 0 0 0 0 0 0 0 0 0 0 0 0 0 0 0 0 0 0 0 0
0 0 0 0 0 0 0 0 0 0 0 0 0 0 0 0 0 0 0 0 0 0 0 0 0 0 0 0 0 0 0 0 0 0 0 0 0 0 0 0 0 0 0
0 0 0 0 0 0 0 0 0 0 0 0 0 0 0 0 0 0 0 0 0 0 0 0 0 0 0 0 0 0 0 0 0 0 0 0 0 0 0 0 0 0 0
0 0 0 0 0 0 0 0 0 0 0 0 0 0 0 0 0 0 0 0 0 0 0 0 0 0 0 0 0 0 0 0 0 0 0 0 0 0 0 0 0 0 0
0 0 0 0 0 0 0 0 0 0 0 0 0 0 0 0 0 0 0 0 0 0 0 0 0 0 0 0 0 0 0 0 0 0 0 0 0 0 0 0 0 0 0
0 0 0 0 0 0 0 0 0 0 0 0 0 0 0 0 0 0 0 0 0 0 0 0 0 0 0 0 0 0 0 0 0 0 0 0 0 0 0 0 0 0 0
0 0 0 0 0 0 0 0 0 0 0 0 0 0 0 0 0 0 0 0 0 0 0 0 0 0 0 0 0 0 0 0 0 0 0 0 0 0 0 0 0 0 0
0 0 0 0 0 0 0 0 0 0 0 0 0 0 0 0 0 0 0 0 0 0 0 0 0 0 0 0 0 0 0 0 0 0 0 0 0 0 0 0 0 0 0
0 0 0 0 0 0 0 0 0 0 0 0 0 0 0 0 0 0 0 0 0 0 0 0 0 0 0 0 0 0 0 0 0 0 0 0 0 0 0 0 0 0 0
0 0 0 0 0 0 0 0 0 0 0 0 0 0 0 0 0 0 0 0 0 0 0 0 0 0 0 0 0 0 0 0 0 0 0 0 0 0 0 0 0 0 0
0 0 0 0 0 0 0 0 0 0 0 0 0 0 0 0 0 0 0 0 0 0 0 0 0 0 0 0 0 0 0 0 0 0 0 0 0 0 0 0 0 0 0
0 0 0 0 0 0 0 0 0 0 0 0 0 0 0 0 0 0 0 0 0 0 0 0 0 0 0 0 0 0 0 0 0 0 0 0 0 0 0 0 0 0 0
0 0 0 0 0 0 0 0 0 0 0 0 0 0 0 0 0 0 0 0 0 0 0 0 0 0 0 0 0 0 0 0 0 0 0 0 0 0 0 0 0 0 0
0 0 0 0 0 0 0 0 0 0 0 0 0 0 0 0 0 0 0 0 0 0 0 0 0 0 0 0 0 0 0 0 0 0 0 0 0 0 0 0 0 0 0
0 0 0 0 0 0 0 0 0 0 0 0 0 0 0 0 0 0 0 0 0 0 0 0 0 0 0 0 0 0 0 0 0 0 0 0 0 0 0 0 0 0 0
0 0 0 0 0 0 0 0 0 0 0 0 0 0 0 0 0 0 0 0 0 0 0 0 0 0 0 0 0 0 0 0 0 0 0 0 0 0 0 0 0 0 0
0 0 0 0 0 0 0 0 0 0 0 0 0 0 0 0 0 0 0 0 0 0 0 0 0 0 0 0 0 0 0 0 0 0 0 0 0 0 0 0 0 0 0
0 0 0 0 0 0 0 0 0 0 0 0 0 0 0 0 0 0 0 0 0 0 0 0 0 0 0 0 0 0 0 0 0 0 0 0 0 0 0 0 0 0 0
0 0 0 0 0 0 0 0 0 0 0 0 0 0 0 0 0 0 0 0 0 0 0 0 0 0 0 0 0 0 0 0 0 0 0 0 0 0 0 0 0 0 0
0 0 0 0 0 0 0 0 0 0 0 0 0 0 0 0 0 0 0 0 0 0 0 0 0 0 0 0 0 0 0 0 0 0 0 0 0 0 0 0 0 0 0
0 0 0 0 0 0 0 0 0 0 0 0 0 0 0 0 0 0 0 0 0 0 0 0 0 0 0 0 0 0 0 0 0 0 0 0 0 0 0 0 0 0 0
0 0 0 0 0 0 0 0 0 0 0 0 0 0 0 0 0 0 0 0 0 0 0 0 0 0 0 0 0 0 0 0 0 0 0 0 0 0 0 0 0 0 0
0 0 0 0 0 0 0 0 0 0 0 0 0 0 0 0 0 0 0 0 0 0 0 0 0 0 0 0 0 0 0 0 0 0 0 0 0 0 0 0 0 0 0
0 0 0 0 0 0 0 0 0 0 0 0 0 0 0 0 0 0 0 0 0 0 0 0 0 0 0 0 0 0 0 0 0 0 0 0 0 0 0 0 0 0 0
0 0 0 0 0 0 0 0 0 0 0 0 0 0 0 0 0 0 0 0 0 0 0 0 0 0 0 0 0 0 0 0 0 0 0 0 0 0 0 0 0 0 0
Wind_Speed
3 3 3 3 3 3 3 3 3 2 2 2 2 2 1 1 1 1 1 1 1 0 0 0 1 0 0 0 0 1 1 2 5 5 4 4 5 6 7 6 6 6 7
3 4 3 3 3 3 2 2 3 3 2 2 2 2 1 1 1 2 1 1 1 1 1 0 1 0 0 1 1 1 2 2 3 6 5 4 5 6 6 7 6 6 7
4 4 3 3 3 3 3 2 2 2 2 2 2 2 2 2 2 2 2 1 1 1 1 1 2 1 1 1 1 2 2 2 2 4 6 4 4 4 6 6 7 6 7
4 4 4 4 4 3 3 2 3 3 3 2 2 2 2 2 2 2 2 1 1 1 1 2 2 2 2 2 2 2 2 2 2 4 5 5 4 5 4 6 7 5 7
4 4 4 3 3 3 3 2 2 2 3 3 2 2 2 2 2 2 2 2 2 2 2 2 2 3 3 3 2 2 2 2 3 4 5 5 5 5 5 5 7 7 6
5 4 3 3 3 3 3 3 3 2 2 2 2 2 2 2 2 3 2 2 2 2 2 2 2 3 3 5 5 5 3 3 4 4 4 6 7 6 5 5 6 7 6
4 3 3 4 4 3 3 3 3 3 2 2 2 2 2 3 4 3 3 2 2 3 3 3 3 3 3 3 5 6 6 6 7 5 6 7 7 6 6 7 6 6 7
4 3 3 3 3 3 3 3 3 2 3 3 2 2 2 3 3 4 3 3 2 3 3 3 4 4 3 4 3 4 5 5 6 6 6 7 7 5 5 6 7 8 7
4 4 4 4 4 3 3 3 3 2 2 2 2 3 3 3 4 4 3 2 2 4 4 3 4 4 6 6 4 5 6 6 7 9 10 10 11 10 7 4 5 5 7
4 4 3 3 4 4 4 3 2 2 3 2 2 2 3 4 4 4 3 2 3 3 3 3 4 5 7 7 4 5 7 7 6 7 8 9 8 8 8 5 4 5 5
2 2 2 3 3 3 2 2 2 2 2 1 2 2 3 3 4 5 4 3 3 4 4 3 4 7 8 8 7 5 8 8 5 6 6 6 5 4 4 4 4 5 6
2 2 2 2 2 2 2 2 2 2 2 2 2 3 2 3 3 5 6 6 5 4 5 4 4 8 9 9 7 8 10 8 4 5 5 5 5 5 5 5 6 6 7
2 2 2 2 1 2 3 3 2 2 2 2 2 3 3 2 3 6 6 7 7 5 5 7 8 9 9 7 8 9 6 4 4 5 6 6 5 5 5 4 5 5 6
2 2 2 2 2 1 2 2 3 3 3 3 3 4 4 3 3 3 3 4 5 6 5 6 8 9 7 6 5 5 4 4 5 6 6 5 4 4 4 3 4 4 4
2 2 2 2 2 2 2 2 3 4 4 5 5 4 4 5 6 6 4 4 4 4 3 2 3 3 4 4 4 4 4 4 5 5 5 5 5 4 4 3 3 3 4
2 2 2 1 1 1 2 2 4 4 5 7 7 5 5 7 8 8 9 9 8 5 2 3 4 4 5 5 5 5 4 5 5 5 5 5 5 5 5 4 3 4 5
3 3 2 2 2 2 2 2 2 3 5 7 8 9 9 9 9 9 9 8 7 4 3 4 5 5 5 5 5 5 6 5 5 5 6 6 5 5 5 5 4 4 5
3 3 3 3 2 2 3 3 2 2 3 4 6 9 9 10 10 9 8 5 4 4 4 5 6 6 6 6 6 6 6 5 5 5 6 6 5 5 5 5 5 5 5
3 2 2 2 2 2 2 2 2 3 3 4 3 4 6 8 8 8 5 3 5 5 5 6 6 6 6 6 6 6 6 6 6 6 6 6 5 5 6 5 5 6 5
2 3 2 2 2 2 2 2 2 3 3 4 4 4 3 2 3 4 4 4 5 6 6 6 6 6 6 6 6 6 6 6 6 6 6 6 5 5 6 6 5 5 5
2 2 3 2 2 3 3 3 3 3 4 5 5 5 5 3 5 5 5 5 6 7 7 7 7 7 6 6 6 6 7 7 6 6 6 6 5 5 5 5 5 5 5
2 2 3 3 3 3 3 3 4 4 5 6 5 4 7 4 5 5 6 6 6 6 6 6 6 6 6 6 6 7 7 8 7 7 6 6 5 5 5 5 5 4 4
3 3 3 3 3 4 4 4 4 5 5 5 5 4 4 5 6 6 7 6 6 6 6 6 7 7 6 6 6 7 8 8 7 7 7 6 6 5 5 5 5 5 5
4 4 4 3 3 4 4 4 5 5 5 5 5 5 5 6 6 7 7 6 6 6 6 6 7 9 10 8 7 7 8 8 7 7 9 8 7 6 5 5 5 6 5
4 4 4 4 4 5 5 5 5 5 5 6 6 6 6 6 6 7 6 6 6 7 7 7 6 7 10 11 10 9 10 12 10 7 7 7 8 7 7 6 5 5 5
4 4 4 4 5 5 5 5 5 6 6 6 6 6 6 6 7 7 6 6 6 6 7 6 8 9 10 9 11 12 12 12 11 10 7 6 7 7 6 6 6 5 5
Wind_Direction
184 177 168 168 162 157 159 161 164 157 156 158 160 147 140 127 115 120 119 121 125 60 27 188 283 297 287 276 277 279 267 254 268 287 288 305 311 314 317 316 312 311 312
180 169 176 166 150 150 164 169 161 164 165 167 157 152 157 146 137 144 168 163 169 221 264 267 284 303 298 276 262 264 264 258 266 289 301 309 306 312 313 313 315 313 307
169 167 169 168 160 170 177 171 161 162 156 155 150 163 174 171 166 167 171 177 203 236 246 240 263 255 266 272 268 265 268 276 267 280 296 303 301 314 317 313 309 305 306
167 172 179 185 181 182 177 168 166 161 159 165 169 181 187 185 182 185 179 186 211 241 249 240 247 240 248 262 265 264 271 280 282 282 289 300 301 310 316 315 316 314 310
170 182 193 185 173 166 166 167 163 159 169 168 166 177 187 194 195 187 190 203 225 247 258 258 263 261 259 262 267 273 270 273 280 285 289 300 303 317 315 312 308 313 304
178 191 186 170 168 172 175 169 161 166 169 162 177 186 200 220 214 212 203 213 230 241 258 267 269 265 272 277 277 280 278 273 276 278 284 289 294 300 303 304 307 317 310
181 186 179 173 175 179 173 168 174 180 174 182 195 194 217 233 233 232 227 218 229 240 248 260 273 273 267 276 283 288 286 280 272 272 277 278 287 294 300 300 298 293 285
177 184 179 174 179 172 170 182 189 182 186 197 203 210 223 241 244 244 245 229 236 249 252 252 259 274 277 280 284 288 285 281 278 268 265 272 276 283 280 283 287 290 285
185 193 191 182 178 174 185 197 196 183 196 204 200 210 222 245 246 246 251 233 247 260 261 258 257 268 281 289 288 288 292 291 291 282 279 280 286 290 293 293 295 300 298
205 203 191 182 181 186 196 198 191 187 201 202 221 225 229 245 250 253 255 241 258 269 273 267 260 269 286 291 280 280 284 288 298 299 289 286 285 286 286 270 273 280 290
185 176 176 179 184 186 186 180 168 173 178 206 234 247 245 245 252 256 255 244 250 265 273 278 278 284 286 287 282 272 280 294 292 287 288 288 286 281 277 269 259 259 265
142 158 174 178 177 168 165 166 161 166 183 218 240 264 264 259 256 261 260 254 255 259 267 275 280 286 287 289 288 288 292 295 287 285 284 283 283 282 284 280 268 262 260
140 163 170 160 169 166 170 171 166 176 197 222 231 255 272 274 264 259 259 260 261 260 265 273 282 286 289 288 287 291 291 283 280 278 278 277 281 283 286 287 280 275 274
161 172 166 167 172 174 182 183 188 197 208 219 229 245 263 272 268 266 261 262 261 262 271 280 285 285 285 290 292 285 274 267 264 266 273 278 284 286 279 282 285 298 297
168 171 177 180 183 194 208 218 219 224 217 220 228 230 239 256 259 259 263 262 257 259 283 296 296 296 289 287 285 281 278 274 267 267 272 281 284 283 283 288 279 280 277
171 186 192 191 198 206 220 268 251 246 250 248 249 250 255 262 276 263 261 265 267 266 264 269 271 270 270 274 277 279 271 268 270 271 270 269 272 275 281 283 277 268 275
188 192 189 190 200 212 217 228 269 278 256 253 254 257 259 269 272 271 272 274 269 257 242 255 259 260 263 265 265 265 267 268 268 269 268 266 267 270 273 276 276 274 276
198 197 193 200 206 214 220 228 233 248 274 275 264 260 264 269 272 273 275 275 269 248 239 249 254 257 259 259 260 262 267 271 266 264 266 262 256 259 265 267 267 268 274
201 206 208 210 210 215 223 231 238 243 254 269 286 277 266 271 273 273 267 241 248 252 248 251 253 256 259 260 260 260 261 262 262 261 261 258 252 251 257 260 263 265 267
214 215 205 204 207 216 220 227 238 247 255 260 262 269 287 281 269 269 251 245 248 252 251 251 252 251 254 256 258 259 262 263 262 259 260 259 252 248 253 257 258 261 263
210 212 206 207 214 219 223 229 236 240 247 255 258 261 267 261 258 260 257 251 249 253 254 254 253 252 250 251 251 252 254 258 257 257 259 256 253 252 253 253 256 258 266
203 207 209 218 223 227 233 236 237 242 248 256 267 268 262 257 257 260 258 256 252 251 253 256 257 253 248 246 246 250 254 257 256 255 258 256 250 249 251 251 255 256 257
201 211 221 226 227 232 236 236 238 244 250 254 260 262 256 250 253 256 259 262 263 262 258 253 258 262 258 250 243 241 248 252 250 247 251 253 249 246 245 246 247 250 252
204 212 221 229 229 231 237 241 243 246 249 254 255 255 255 256 259 261 262 264 265 264 261 259 258 261 264 263 256 249 249 252 248 243 238 241 242 241 241 243 244 243 247
208 215 220 225 228 232 238 243 245 247 250 251 253 256 257 258 261 263 264 264 265 267 267 265 265 266 265 263 263 262 261 260 253 245 240 236 236 236 234 234 236 238 241
214 219 226 229 231 233 237 244 248 249 252 254 254 256 258 260 262 264 265 265 267 269 270 268 267 269 272 270 267 268 266 263 257 249 235 229 232 236 230 232 230 232 233